Location: Middle Street
(51.7167°N, 0.0333°E)
Time: 16:49:19
(UTC+00:00)

Cosmos 1455 - Visible Passes

Search period start: 14 May 2021 00:00
Search period end: 24 May 2021 00:00
Orbit: 498 x 521 km, 82.5° (Epoch: 13 May)

Date Brightness Start Highest point End Pass type
(mag) Time Alt. Az. Time Alt. Az. Time Alt. Az.
14 May 4.3 02:48:03 10° N 02:51:28 29° ENE 02:54:52 10° SE visible
15 May 4.6 02:31:13 10° NNE 02:34:25 24° ENE 02:37:37 10° SE visible
16 May 4.9 02:14:25 10° NNE 02:17:21 20° ENE 02:20:17 10° ESE visible
17 May 5.1 01:57:41 10° NNE 02:00:17 17° ENE 02:02:51 10° ESE visible
18 May 5.1 01:41:02 10° NNE 01:43:11 14° ENE 01:45:19 10° E visible
18 May 2.2 03:15:24 10° NNW 03:19:14 67° W 03:23:04 10° S visible
19 May 5.3 01:24:35 10° NE 01:26:05 12° ENE 01:27:35 10° E visible
19 May 2.2 02:58:23 10° NNW 03:02:15 84° W 03:06:07 10° S visible
20 May 2.4 02:41:24 10° N 02:45:16 78° E 02:49:08 10° SSE visible
21 May 2.7 02:24:25 10° N 02:28:16 62° ENE 02:32:06 10° SSE visible
22 May 3.1 02:07:28 10° N 02:11:15 49° ENE 02:15:00 10° SSE visible
23 May 3.5 01:50:33 10° N 01:54:13 40° ENE 01:57:52 10° SE visible
